Flag for U.S.A. Weather past 2 weeks in Durango, Colorado, U.S.A.

Now
69 °F

Sunny.


Feels Like: 69 °F
Forecast: 29 / 68 °F
Wind: 14 mph from Southwest

Location: Durango-La Plata County Airport

Current Time: Mar 27, 2015 at 4:16:55 PM

Latest Report: Mar 27, 2015 at 2:53 PM


Visibility: 10 mi

Pressure: 30.10 "Hg

Humidity: 17%

Dew point: 23 °F

Location of DurangoLocation

Historic Weather in Durango — Graph

°F

Durango temperature yesterday

Maximum temperature yesterday: 60 °F (at 4:53 PM)
Minimum temperature yesterday: 22 °F (at 6:53 AM)
Average temperature yesterday: 41 °F

Past Weeks' High & Low Weather Summary

 TemperatureHumidityPressure
High69 °F (Mar 27, 2:53 PM)96% (Mar 21, 6:53 AM)30.45 "Hg (Mar 21, 6:53 AM)
Low22 °F (Mar 26, 6:53 AM)14% (Mar 15, 4:53 PM)29.82 "Hg (Mar 18, 2:53 PM)
Average46 °F51%30.11 "Hg
* Reported Mar 12 2:53 PM — Mar 27 2:53 PM, Durango, Weather by CustomWeather, © 2015

Note: Actual official high and low records may vary slightly from our data, if they occured in-between our weather recording intervals... More about our weather records

Advertising

Durango weather history for previous 24 hours

 ConditionsComfort  
Time TempWeatherWind HumidityBarometerVisibility
2:53 PM
Fri, Mar 27
69 °FSunny.14 mph17%30.10 "Hg10 mi
1:53 PM65 °FSunny.13 mph21%30.15 "Hg10 mi
12:53 PM64 °FSunny.10 mph22%30.18 "Hg10 mi
11:53 AM59 °FSunny.8 mph24%30.22 "Hg10 mi
10:53 AM52 °FSunny.No wind32%30.26 "Hg10 mi
9:53 AM48 °FSunny.No wind37%30.26 "Hg10 mi
8:53 AM40 °FSunny.No wind53%30.30 "Hg10 mi
7:53 AM31 °FClear.No wind67%30.31 "Hg10 mi
6:53 AM26 °FClear.5 mph77%30.30 "Hg10 mi
5:53 AM28 °FClear.5 mph72%30.26 "Hg10 mi
4:53 AM26 °FClear.3 mph77%30.26 "Hg10 mi
3:53 AM28 °FClear.3 mph69%30.25 "Hg10 mi
2:53 AM30 °FClear.5 mph69%30.24 "Hg10 mi
1:53 AM34 °FClear.No wind59%30.25 "Hg10 mi
12:53 AM35 °FClear.No wind54%30.25 "Hg10 mi
11:53 PM
Thu, Mar 26
36 °FClear.6 mph54%30.27 "Hg10 mi
10:53 PM41 °FClear.No wind41%30.24 "Hg10 mi
9:53 PM45 °FClear.No wind35%30.23 "Hg10 mi
8:53 PM45 °FClear.7 mph37%30.25 "Hg10 mi
7:53 PM52 °FSunny.5 mph24%30.21 "Hg10 mi
6:53 PM56 °FSunny.18 mph20%30.19 "Hg10 mi
5:53 PM59 °FSunny.20 mph18%30.16 "Hg10 mi
4:53 PM60 °FSunny.15 mph18%30.16 "Hg10 mi
Weather by CustomWeather, © 2015

See weather overviewHow to use our weather pages